Погода в Курортном посёлке Озеро-Карачи

Россия / Новосибирская область     55°21′00″N   76°58′12″E
темп.,
°C
ветер,
м/с
пор.,
м/с
влажн.,
%
обл.,
%
осадки,
мм/ч
давл.,
гПа
погр.,
м
11 апреля, вс
вс1101:00+1всв3392100 0.0 104268
04:000св2394100 0.1 104280
07:00+1св2289100 0.1 104337
10:00+1св11100100 0.0 104356
13:00+2с1192100 0.0 1042399
16:00+3сз1187100 0.0 1041482
19:00+2зюз1193100 0.0 104111
22:000ююз229317 0.0 104027
12 апреля, пн
пн1201:00−1юз3496100 0.0 103985
04:00−1зюз4698100 0.0 1037190
07:00−1юз3793100 0.0 1037153
10:00+2зюз4982100 0.0 1035262
13:00+6зюз596874 0.0 1033409
16:00+9зюз51071100 0.0 1032558
19:00+6з51181100 0.0 1031345
22:00+4сз41096100 1.2 1032325
13 апреля, вт
вт1301:00+3ссз3994100 1.2 1033334
04:00+1ссз389587 0.0 1034159
07:000ссз37902 0.0 1036121
10:00+4ссз35755 0.0 1037275
13:00+7сз57625 0.0 1037873
16:00+8сз67512 0.0 10361047
19:00+8сз58605 0.0 1036979
22:00+4зсз39755 0.0 1037184
14 апреля, ср
ср1401:00+3з378338 0.0 1036140
04:00+2з3783100 0.0 1035115
07:00+2зюз488258 0.0 1035120
10:00+5зюз4973100 0.0 1034288
13:00+10з6956100 0.0 1032746
16:00+12з794783 0.0 10291025
19:00+11з61156100 0.0 1027749
22:00+8зюз51268100 0.0 1026294
15 апреля, чт
чт1501:00+7зюз4117570 0.0 1025224
04:00+6зюз49825 0.0 1023145
07:00+5зюз37875 0.0 1022101
10:00+9зюз47765 0.0 1021259
13:00+14зюз676417 0.0 1020697
16:00+16зюз68569 0.0 10181241
19:00+16з586017 0.0 10171124
22:00+12зюз487910 0.0 1017125